Hauptseite
METAR-TAF:

METAR-TAF

Flughäfen :

Bohrplattform

A12-cpp, Niederlande

Breite: 55-23-57N, Länge: 3-48-37E, Höhe: 33 m

Beobachtung

Neuester Wetterbericht von vor 21 Minuten, um 19:25 UTC
Wind 18 kt aus Südwest
Temperatur 11°C
Luftfeuchtigkeit 76%
Luftdruck 1015 hPa
Sichtweite 10 km oder mehr

METAR: EHAK 221925Z AUTO 23018KT 9999 NCD 11/07 Q1015 W///H///

Zeit: 21:46 (19:46 UTC)


TAF: fehlend

Wetterbeobachtungen und Prognosen von mehr als 4000 Flughäfen (METAR und TAF Bericht).

Die verfügbaren Stationen werden durch gelbe und rote Markierungen auf der Karte dargestellt.

Führen Sie die Maus auf sie, um den Namen der Station zu sehen.

Darauf klicken, um die Beobachtung von Wetterbeobachtungen und Prognosen zu sehen.

Um die Karte zu ändern : klicken Sie auf den grünen Tasten mit einem schwarzen Kreuz Zum Vergrößern, auf den grünen Button mit einem Gedankenstrich zu verkleinern, oder auf die grünen Pfeile für benachbarte Karten.


METAR-TAF: